STARLINK-2153

Last updated on Sat Apr 24 2021 00:02:02 GMT+0000 (Coordinated Universal Time)

1 48009U 21024AJ 21113.25001157 .00080191 00000-0 57078-3 0 9998 2 48009 53.0484 55.6742 0001448 75.0893 89.1587 15.73177672 1820

Satellite not in orbit

STARLINK-2153